TimeCDT,TemperatureF,Dew PointF,Humidity,Sea Level PressureIn,VisibilityMPH,Wind Direction,Wind SpeedMPH,Gust SpeedMPH,PrecipitationIn,Events,Conditions,WindDirDegrees,DateUTC
12:16 AM,42.8,39.2,87,29.74,9.0,Calm,Calm,-,0.01,Rain,Light Rain,0,2013-10-06 05:16:00
12:42 AM,42.8,39.2,87,29.75,8.0,Calm,Calm,-,0.02,Rain,Light Rain,0,2013-10-06 05:42:00
12:52 AM,42.1,39.9,92,29.77,10.0,Calm,Calm,-,0.02,Rain,Light Rain,0,2013-10-06 05:52:00
1:52 AM,43.0,41.0,93,29.79,10.0,NNW,10.4,-,0.02,Rain,Light Rain,330,2013-10-06 06:52:00
2:03 AM,42.8,41.0,93,29.78,10.0,NNW,9.2,-,0.00,Rain,Light Rain,340,2013-10-06 07:03:00
2:06 AM,42.8,41.0,93,29.78,10.0,NNW,11.5,-,0.00,Rain,Light Rain,340,2013-10-06 07:06:00
2:36 AM,42.8,41.0,93,29.79,10.0,NNW,9.2,-,0.01,Rain,Light Rain,340,2013-10-06 07:36:00
2:52 AM,43.0,41.0,93,29.80,10.0,NNW,9.2,-,0.01,Rain,Light Rain,340,2013-10-06 07:52:00
3:52 AM,42.1,41.0,96,29.81,10.0,NNW,8.1,-,0.00,,Mostly Cloudy,330,2013-10-06 08:52:00
4:42 AM,44.6,42.8,93,29.79,10.0,NW,9.2,-,0.00,Rain,Light Rain,310,2013-10-06 09:42:00
4:52 AM,44.1,42.1,93,29.80,10.0,NW,8.1,-,0.00,Rain,Light Rain,320,2013-10-06 09:52:00
5:01 AM,44.6,42.8,93,29.79,10.0,NW,9.2,-,0.00,Rain,Light Rain,310,2013-10-06 10:01:00
5:22 AM,44.6,42.8,93,29.78,10.0,WNW,9.2,-,0.00,Rain,Light Rain,300,2013-10-06 10:22:00
5:29 AM,44.6,42.8,93,29.79,10.0,WNW,9.2,-,0.00,,Overcast,300,2013-10-06 10:29:00
5:36 AM,44.6,42.8,93,29.79,10.0,WNW,9.2,-,0.01,,Overcast,300,2013-10-06 10:36:00
5:49 AM,44.6,42.8,93,29.80,10.0,WNW,12.7,-,0.01,,Overcast,300,2013-10-06 10:49:00
5:52 AM,44.1,42.1,93,29.81,10.0,NW,10.4,-,0.01,,Overcast,310,2013-10-06 10:52:00
6:52 AM,45.0,43.0,93,29.83,10.0,NW,15.0,-,0.00,Rain,Light Rain,310,2013-10-06 11:52:00
7:52 AM,46.0,44.1,93,29.83,10.0,NW,15.0,24.2,0.01,,Overcast,320,2013-10-06 12:52:00
8:38 AM,46.4,44.6,93,29.81,8.0,NW,13.8,21.9,0.00,Rain,Light Rain,310,2013-10-06 13:38:00
8:52 AM,46.9,44.1,90,29.83,10.0,NW,12.7,20.7,0.01,,Overcast,310,2013-10-06 13:52:00
9:02 AM,46.4,44.6,93,29.81,10.0,WNW,12.7,-,N/A,,Overcast,300,2013-10-06 14:02:00
9:52 AM,46.9,45.0,93,29.84,3.0,NW,17.3,26.5,0.00,Rain,Light Rain,310,2013-10-06 14:52:00
10:52 AM,46.9,45.0,93,29.85,5.0,NW,18.4,29.9,0.00,Rain,Light Rain,320,2013-10-06 15:52:00
11:01 AM,48.2,44.6,87,29.84,4.0,NW,18.4,26.5,0.00,Rain,Light Rain,310,2013-10-06 16:01:00
11:15 AM,48.2,44.6,87,29.83,6.0,NW,21.9,28.8,0.00,Rain,Light Rain,320,2013-10-06 16:15:00
11:23 AM,48.2,46.4,93,29.83,2.0,NW,15.0,28.8,0.00,,Overcast,320,2013-10-06 16:23:00
11:40 AM,48.2,44.6,87,29.84,10.0,NNW,23.0,28.8,0.00,,Overcast,330,2013-10-06 16:40:00
11:48 AM,48.2,44.6,87,29.83,10.0,NW,17.3,28.8,0.00,,Overcast,320,2013-10-06 16:48:00
11:52 AM,48.0,45.0,89,29.86,10.0,NNW,18.4,28.8,0.00,,Overcast,330,2013-10-06 16:52:00
12:09 PM,48.2,44.6,87,29.84,7.0,NW,17.3,32.2,0.00,Rain,Light Rain,320,2013-10-06 17:09:00
12:52 PM,48.0,45.0,89,29.87,5.0,NNW,18.4,24.2,0.00,Rain,Light Rain,330,2013-10-06 17:52:00
1:52 PM,48.0,45.0,89,29.87,3.0,NW,18.4,-,0.02,Rain,Light Rain,320,2013-10-06 18:52:00
2:12 PM,46.4,44.6,93,29.85,8.0,NW,16.1,26.5,0.00,Rain,Light Rain,310,2013-10-06 19:12:00
2:21 PM,46.4,44.6,93,29.85,9.0,NW,15.0,24.2,0.00,,Overcast,310,2013-10-06 19:21:00
2:52 PM,48.0,45.0,89,29.87,10.0,NW,19.6,25.3,0.00,,Overcast,320,2013-10-06 19:52:00
3:10 PM,48.2,44.6,87,29.86,10.0,NW,16.1,25.3,N/A,,Overcast,310,2013-10-06 20:10:00
3:22 PM,48.2,44.6,87,29.87,10.0,NW,13.8,21.9,N/A,,Overcast,320,2013-10-06 20:22:00
3:32 PM,48.2,44.6,87,29.87,10.0,NW,19.6,24.2,N/A,,Overcast,310,2013-10-06 20:32:00
3:52 PM,48.9,45.0,86,29.89,10.0,NNW,20.7,28.8,N/A,,Overcast,330,2013-10-06 20:52:00
4:52 PM,50.0,46.0,86,29.91,10.0,NW,5.8,-,N/A,,Overcast,320,2013-10-06 21:52:00
5:52 PM,55.0,48.0,77,29.91,10.0,WNW,5.8,-,N/A,,Mostly Cloudy,290,2013-10-06 22:52:00
6:52 PM,55.0,37.0,51,29.93,10.0,NW,13.8,-,N/A,,Clear,320,2013-10-06 23:52:00
7:52 PM,53.1,35.1,50,29.96,10.0,NW,9.2,-,N/A,,Clear,310,2013-10-07 00:52:00
8:52 PM,48.0,36.0,63,29.98,10.0,NW,6.9,-,N/A,,Clear,310,2013-10-07 01:52:00
9:52 PM,45.0,36.0,71,30.00,10.0,West,3.5,-,N/A,,Clear,280,2013-10-07 02:52:00
10:52 PM,43.0,36.0,76,30.01,10.0,NW,6.9,-,N/A,,Clear,310,2013-10-07 03:52:00
11:52 PM,45.0,37.0,74,30.02,10.0,NNW,4.6,-,N/A,,Clear,330,2013-10-07 04:52:00